Вернуться в каталог

COSMOS 2118

АктивенВоенныеPO
NORAD 21032·PAYLOAD·🇷🇺 Russia

Запущен Dec 22, 1990 с Plesetsk Cosmodrome

Loading…

Ближайшие Пролёты (ближайшие 24 часа)

TLE

СвежийSource: Space-Track

Эпоха: Sep 14, 2026, 13:47 UTC

1 21032U 90114E   26257.57493522  .00000022  00000-0  62978-4 0  9992
2 21032  82.5643 121.2586 0010554 186.1730 173.9235 12.65558679650245

Отслеживайте COSMOS 2118 в реальном времени с AllMySat

Download on the App Store